|
NORAD ID: 29525 Int'l Code: 2006-050D
Perigee: 840.0 km
Apogee: 847.1 km
Inclination: 98.9 °
Period: 101.6 minutes
Semi major axis: 7214 km
Launch date: November 4, 2006
Source: United States (US)
Note: This is SATELLITE DEBRIS
Two Line Element Set (TLE):
1 29525U 06050D 13168.61869535 .00000820 00000-0 43248-3 0 8236
2 29525 098.8502 176.1644 0004918 162.5698 313.3698 14.16726302341716
Source:
NASA's NSSDC Master Catalog entry for DMSP 5D-3 F17 DEB
|